#timestamp,LO_Frequency,Hit,StdDev 
1674046815.0,286046999.6,N
1674046815.9,286046999.6,N
1674046835.8,286046999.0,N
1674046855.6,286046996.8,N
1674046875.4,286047001.2,N
1674046895.3,286047000.8,N
1674046915.1,286046998.1,N
1674046935.8,286047002.0,N
1674046955.7,286047002.6,N
1674046975.5,286046999.4,N
1674046995.4,286047001.2,N
1674047015.2,286047002.8,N
1674047035.0,286047006.0,N
1674047035.9,286047006.0,N
1674047055.8,286047001.5,N
1674047075.6,286047001.5,N
1674047095.5,286047004.0,N
1674047115.3,286047004.3,N
1674047135.1,286047001.5,N
1674047155.9,286047001.3,N
1674047175.7,286047001.8,N
1674047195.6,286047002.2,N
1674047215.4,286047001.9,N
1674047235.2,286047003.8,N
1674047255.1,286047000.6,N
1674047256.0,286047000.6,N
1674047275.8,286046999.8,N
1674047295.6,286047002.1,N
1674047315.5,286047000.8,N
1674047335.3,286047000.3,N
1674047355.2,286047003.1,N
1674047375.9,286047004.2,N
1674047395.7,286046999.9,N
1674047415.6,286047002.6,N
1674047435.4,286046999.9,N
1674047455.2,286047001.4,N
1674047475.1,286047004.9,N
1674047476.0,286047004.9,N
1674047495.8,286047003.3,N
1674047515.7,286047004.6,N
1674047535.5,286047006.4,Y
1674047555.3,286047005.8,P
1674047575.2,286047003.6,N
1674047595.0,286047001.5,N
1674047595.9,286047001.5,N
1674047615.7,286047002.6,N
1674047635.6,286046998.1,N
1674047655.4,286046998.4,N
1674047675.3,286046997.9,N
1674047695.1,286046997.3,N
1674047696.0,286046997.3,N
1674047715.8,286046996.8,N
1674047735.7,286046998.3,N
1674047755.5,286046999.5,N
1674047775.3,286046999.0,N
1674047795.2,286047002.8,N
1674047815.0,286047001.3,N
1674047815.9,286047001.3,N
1674047835.8,286047001.0,N
1674047855.6,286047000.8,N
1674047875.4,286046998.2,N
1674047895.3,286046996.7,N
1674047915.1,286046997.6,N
1674047935.8,286046999.0,N
1674047955.7,286046995.7,N
1674047975.5,286046998.6,N
1674047995.4,286046999.1,N
1674048015.2,286046997.1,N
1674048035.0,286046999.5,N
1674048035.9,286046999.5,N
1674048055.8,286046998.8,N
1674048075.6,286047001.0,N
1674048095.5,286047002.0,N
1674048115.3,286046998.2,N
1674048135.1,286047000.9,N
1674048155.9,286046998.2,N
1674048175.7,286046999.0,N
1674048195.5,286046999.6,N
1674048215.4,286046998.8,N
1674048235.2,286047000.9,N
1674048255.0,286046998.3,N
1674048256.0,286046998.3,N
1674048275.8,286046999.0,N
1674048295.6,286047000.9,N
1674048315.5,286047000.3,N
1674048335.3,286047000.8,N
1674048355.1,286046999.6,N
1674048375.9,286046999.3,N
1674048395.7,286046997.1,N
1674048415.6,286046999.4,N
1674048435.4,286046998.9,N
1674048455.2,286047002.4,N
1674048475.1,286047002.1,N
1674048476.0,286047002.1,N
1674048495.8,286047001.1,N
1674048515.7,286046998.5,N
1674048535.5,286046997.8,N
1674048555.3,286046997.9,N
1674048575.2,286046997.8,N
1674048595.0,286046996.5,N
1674048595.9,286046996.5,N
1674048615.8,286047001.0,N
1674048635.6,286047000.2,N
1674048655.4,286047002.6,N
1674048675.3,286047003.3,N
1674048695.1,286046999.7,N
1674048715.8,286047001.8,N
1674048735.7,286047001.6,N
1674048755.5,286047004.0,N
1674048775.4,286046999.8,N
1674048795.2,286047000.2,N
1674048815.0,286047000.3,N
1674048815.9,286047000.3,N
1674048835.8,286047000.3,N
1674048855.6,286047002.3,N
1674048875.4,286047002.5,N
1674048895.3,286047004.2,N
1674048915.1,286047000.4,N
1674048935.9,286046998.3,N
1674048955.7,286046999.5,N
1674048975.5,286046998.8,N
1674048995.4,286046999.4,N
1674049015.2,286046997.2,N
1674049035.0,286046998.7,N
1674049036.0,286046998.7,N
1674049055.8,286047000.5,N
1674049075.6,286046999.2,N
1674049095.5,286046999.1,N
1674049115.3,286046998.7,N
1674049135.1,286047002.8,N
1674049155.9,286047002.1,N
1674049175.7,286047000.0,N
1674049195.6,286046998.5,N
1674049215.4,286047000.8,N
1674049235.2,286046998.8,N
1674049255.1,286046998.2,N
1674049256.0,286046998.2,N
1674049275.8,286047002.4,N
1674049295.7,286047004.2,N
1674049315.9,286047000.6,N
1674049335.7,286047002.4,N
1674049355.6,286046999.7,N
1674049375.4,286046998.4,N
1674049395.3,286046999.4,N
1674049415.1,286046999.5,N
1674049435.8,286046999.0,N
1674049455.7,286046998.4,N
1674049475.5,286046997.2,N
1674049495.4,286046999.1,N
1674049515.2,286046999.6,N
1674049535.0,286046997.7,N
1674049535.9,286046997.7,N
1674049555.8,286046995.2,N
1674049575.6,286046995.4,N
1674049595.4,286046999.1,N
1674049615.3,286046998.2,N
1674049635.1,286046998.2,N
1674049655.9,286046998.2,N
1674049675.7,286046997.8,N
1674049695.5,286046997.2,N
1674049715.4,286047000.4,N
1674049735.2,286046999.3,N
1674049755.0,286047000.5,N
1674049756.0,286047000.5,N
1674049775.8,286047001.5,N
1674049795.6,286047004.4,N
1674049815.5,286047001.4,N
1674049835.3,286047004.0,N
1674049855.1,286047000.3,N
1674049875.9,286046996.6,N
1674049895.7,286046998.3,N
1674049915.6,286047000.6,N
1674049935.4,286047002.0,N
1674049955.2,286047002.4,N
1674049975.1,286047000.2,N
1674049976.0,286047000.2,N
1674049995.8,286047000.3,N
1674050015.6,286047000.6,N
1674050035.5,286046998.1,N
1674050055.3,286047001.2,N
1674050075.2,286047000.5,N
1674050095.9,286047002.4,N
1674050115.7,286047000.2,N
1674050135.6,286047000.2,N
1674050155.4,286047001.1,N
1674050205.3,286047000.6,E
1674050215.2,286047000.7,N
1674050235.0,286046998.5,P
1674050235.9,286046998.5,N
1674050255.8,286046998.5,N
1674050275.6,286047002.0,N
1674050295.5,286047002.7,N
1674050315.3,286047004.3,N
1674050335.1,286047001.4,N
1674050355.9,286047003.9,N
1674050375.7,286047001.3,N
1674050395.5,286046999.7,N
